RH
28 29 29 28 28 30 33 34 35 35 35 35 35 35 35 35 34 33 32 32 32 32 31 30 28 27 25 23 20 17 13 10 7 5 4 3 3 2 3 2 3 2 2 2 2 2 2 2 2 2 2 2
29 30 29 28 29 32 34 35 35 35 35 35 35 36 36 35 34 33 32 32 32 32 31 30 29 27 26 23 19 15 11 8 6 4 3 3 2 2 2 2 2 2 2 2 2 2 2 2 2 2 2 2
30 30 29 29 30 33 35 36 36 36 36 36 36 36 36 36 34 33 33 33 32 32 31 30 29 27 25 21 17 13 9 7 5 3 3 2 2 2 2 2 2 2 2 2 2 2 2 2 2 2 2 2
31 30 29 30 31 34 36 36 36 36 37 36 36 37 36 36 35 34 33 33 32 32 31 30 29 27 24 20 15 11 7 5 3 3 2 2 2 2 2 2 2 2 2 2 2 2 2 2 2 2 2 2
31 30 30 31 32 35 37 36 37 37 37 36 36 37 37 36 35 35 34 33 33 32 31 30 28 25 22 17 12 8 6 4 3 3 2 2 2 2 3 2 2 2 2 2 2 2 2 2 2 2 2 2
31 30 30 32 34 37 37 37 38 38 37 36 36 38 38 37 36 35 34 34 33 32 31 30 27 24 19 14 10 7 4 3 2 2 2 2 3 2 2 2 2 2 2 2 2 2 2 2 2 2 2 2
31 31 31 33 35 38 38 37 38 38 37 36 37 39 38 37 36 35 34 33 33 32 31 29 26 21 16 11 8 5 3 3 2 2 2 2 3 2 2 2 2 3 2 2 2 2 2 2 2 2 2 2
31 31 32 34 37 39 38 38 39 39 37 36 38 39 38 37 37 35 34 34 33 32 31 29 25 19 14 10 7 4 3 2 2 2 2 2 2 2 3 2 2 2 2 2 2 2 2 2 2 2 2 1
31 31 32 35 38 39 39 38 39 39 37 36 38 39 38 38 37 36 34 34 34 32 31 28 23 17 13 9 6 4 2 2 2 2 2 2 2 2 2 2 2 2 2 2 2 2 2 2 2 2 2 1
31 31 34 37 39 40 39 39 39 38 37 36 38 38 38 38 37 36 35 35 34 33 31 27 21 16 11 8 6 4 2 2 2 2 2 2 2 2 2 2 2 2 2 2 2 2 2 2 2 2 2 1
31 32 35 37 39 40 39 39 39 38 37 37 38 39 38 39 38 37 36 36 35 34 31 26 20 14 11 8 5 3 2 2 2 2 2 2 2 2 2 2 2 2 2 2 2 2 2 2 2 1 2 1
31 33 35 37 39 40 40 40 40 39 37 37 39 39 39 39 39 37 37 37 35 34 31 26 20 14 10 7 5 3 2 3 2 2 2 2 2 2 2 2 2 2 2 2 2 2 2 2 2 1 1 1
32 33 36 38 40 40 40 40 40 39 37 37 39 39 40 40 39 38 37 37 36 35 32 27 22 15 11 7 5 4 3 3 2 2 2 2 2 2 2 2 2 2 2 2 2 2 2 2 2 1 1 1
32 34 36 38 40 41 41 41 40 39 37 37 39 40 41 41 40 39 38 37 36 35 33 29 23 17 13 8 6 4 3 3 2 2 2 2 2 2 2 2 2 1 1 2 2 2 2 2 1 1 2 1
33 34 36 38 40 41 40 41 40 39 37 38 40 41 41 42 41 40 38 38 37 36 34 31 25 20 15 11 7 5 4 3 2 2 2 2 2 2 2 2 2 1 2 2 1 2 1 2 1 1 1 1
33 34 36 38 40 40 41 41 40 39 38 38 40 41 42 42 42 41 39 38 38 37 35 32 28 23 18 14 9 6 4 3 2 2 2 2 2 2 2 1 2 1 2 1 1 2 1 1 1 1 1 1
33 34 36 38 40 40 40 40 41 40 38 38 40 42 43 43 43 42 40 39 38 38 36 34 31 27 22 17 12 7 5 3 2 2 2 2 1 2 2 2 2 1 1 1 1 1 1 2 1 1 1 1
32 34 36 38 40 40 40 41 41 40 38 38 40 42 43 44 44 44 42 40 39 38 37 36 33 29 26 21 15 9 6 4 3 2 2 2 1 2 1 1 1 1 1 1 1 1 1 2 1 1 1 1
32 34 36 38 40 40 40 40 41 40 39 39 40 43 44 44 45 44 43 41 40 39 38 37 35 32 29 25 19 13 8 5 3 2 2 2 1 1 1 1 1 1 1 1 1 1 1 1 1 2 1 1
32 34 36 37 39 40 40 40 41 40 39 39 40 43 44 45 45 45 45 43 41 41 40 39 36 34 33 28 22 16 10 7 5 3 2 2 1 1 1 1 1 1 1 1 1 1 1 2 1 1 1 1
32 34 35 37 38 39 39 40 41 40 40 39 40 43 44 45 46 46 46 44 43 42 41 40 38 37 35 31 26 20 14 9 7 4 3 2 1 1 1 1 1 1 1 1 1 1 1 1 2 1 1 1
32 33 34 36 37 38 39 40 40 40 40 39 40 42 44 46 46 47 46 46 45 44 43 42 40 39 37 34 29 23 18 13 9 6 4 2 2 1 1 1 1 1 1 1 1 1 1 1 2 2 1 2
31 32 33 35 36 37 38 39 40 40 40 40 40 42 45 46 46 47 47 46 46 46 45 44 43 40 39 37 32 26 21 17 12 9 6 3 2 2 1 1 1 1 1 1 1 1 2 2 1 2 2 2
31 31 32 34 35 36 37 39 40 40 41 40 40 42 45 46 47 47 48 47 47 48 47 46 45 43 41 39 35 30 25 20 15 11 7 4 3 2 1 1 1 1 1 1 1 1 2 2 2 2 2 2
32 32 33 34 36 37 38 40 41 41 41 40 40 42 44 46 47 47 48 48 48 49 49 48 48 46 44 41 38 34 29 24 19 15 11 7 4 3 2 2 1 1 1 1 1 2 2 2 2 2 2 2
34 33 33 34 36 38 39 40 41 41 41 40 40 41 44 46 47 48 48 49 49 49 50 50 50 49 47 44 41 37 33 29 23 18 13 9 6 4 3 2 2 1 1 1 1 2 2 2 2 2 2 2
35 35 33 33 35 37 38 39 39 39 40 40 40 41 44 46 47 48 48 49 49 49 50 51 51 51 49 47 44 41 37 32 27 21 15 11 7 5 3 2 2 1 1 2 1 2 2 2 2 2 2 2
36 35 33 32 34 35 36 37 38 38 39 40 40 41 43 46 47 47 48 49 49 50 50 51 52 52 51 50 48 44 41 36 30 24 17 12 8 6 4 2 2 2 1 2 1 2 2 2 2 2 3 2
37 36 34 32 32 33 34 35 36 37 39 40 41 42 43 45 47 47 48 48 50 50 50 51 52 53 53 52 50 48 44 40 34 27 20 14 9 6 4 2 2 2 1 2 2 2 2 2 3 2 3 2
36 35 35 33 32 34 35 36 39 40 43 44 43 43 43 45 47 47 48 48 50 51 51 52 52 53 53 53 53 51 48 43 37 30 22 16 11 7 4 3 2 1 2 2 2 2 2 2 3 2 3 3
37 37 36 34 33 35 37 39 43 46 49 48 44 42 42 44 47 47 47 48 50 51 52 53 53 53 54 54 54 53 51 47 41 34 26 18 13 9 5 3 2 2 2 2 2 2 2 3 3 3 3 3
Wind_Speed
10 10 9 8 8 6 5 4 3 3 4 5 7 8 9 10 10 11 11 11 12 12 12 12 11 11 12 12 11 11 10 10 9 8 8 8 8 8 8 8 7 7 7 6 6 6 6 6 7 7 8 9
10 10 9 9 8 6 5 4 3 3 4 6 7 8 9 10 10 11 11 11 11 11 11 12 12 11 11 11 11 10 10 9 9 8 8 9 9 9 8 8 7 7 6 6 6 6 6 7 7 8 9 10
11 10 9 9 8 7 5 4 4 4 5 6 7 8 9 9 10 11 11 12 12 11 12 12 12 12 11 11 11 10 10 9 9 9 9 9 9 9 9 8 7 7 6 6 6 6 7 7 8 9 10 11
11 10 10 9 8 7 5 4 5 5 5 6 8 8 9 9 10 11 11 12 12 12 12 12 12 12 12 11 11 10 9 9 9 9 9 9 9 9 9 8 7 7 6 6 7 7 8 8 9 10 11 11
11 11 10 10 9 7 5 5 6 6 6 7 8 9 9 10 11 11 11 11 12 12 12 12 12 12 12 11 10 10 9 9 9 9 9 9 9 9 8 8 7 7 7 7 8 8 9 9 10 11 11 12
12 12 11 10 9 8 6 6 6 6 6 7 8 8 9 10 11 11 12 12 12 13 13 12 12 11 11 11 10 10 9 9 9 9 8 8 8 8 8 8 8 8 8 9 9 10 10 10 11 11 12 12
13 12 12 11 10 8 7 7 7 7 7 7 8 8 9 10 11 12 12 13 13 13 13 13 12 11 11 10 10 9 9 9 9 8 8 8 8 8 8 8 9 9 9 10 10 11 11 11 12 12 12 13
14 13 12 12 10 9 8 9 8 7 7 7 7 8 9 10 12 12 12 12 13 13 13 13 12 11 10 10 10 9 10 9 9 8 7 7 7 7 8 8 9 10 10 11 11 12 12 12 12 12 12 13
14 14 13 12 11 10 9 9 9 8 7 7 7 8 9 10 11 11 12 12 12 12 12 12 12 11 10 10 10 10 10 10 9 7 7 6 6 7 8 9 10 10 11 11 12 12 13 13 13 13 13 13
15 14 14 13 12 11 11 11 10 9 8 7 7 7 8 9 11 11 11 12 12 12 11 11 11 10 10 10 10 10 10 10 9 8 7 7 7 8 8 9 10 10 11 12 12 13 13 13 13 13 13 13
16 15 15 14 13 12 12 12 11 9 8 7 7 7 8 9 10 11 11 11 11 11 11 11 10 10 10 10 9 9 9 9 9 8 8 8 8 8 8 9 10 11 11 12 13 13 14 14 13 13 14 14
16 16 15 14 13 13 13 13 11 10 9 8 7 7 7 8 10 11 11 11 11 11 11 10 10 10 10 10 9 9 9 9 9 9 9 9 9 8 8 9 9 10 11 12 13 13 14 14 14 14 14 14
17 17 16 15 15 14 14 14 12 11 10 9 8 7 7 8 9 10 11 11 11 11 11 10 10 10 10 9 9 9 9 9 9 9 9 10 10 9 9 9 9 10 11 12 13 13 14 14 14 14 14 14
18 18 17 17 16 16 15 15 13 12 10 10 9 7 7 7 9 10 11 11 11 11 11 10 10 10 10 9 9 9 9 9 9 9 9 10 10 10 10 10 10 11 11 12 12 13 13 14 14 14 14 14
19 19 18 18 17 17 16 15 14 13 12 11 9 8 7 7 8 9 10 11 11 11 10 10 10 10 10 10 9 9 9 9 9 9 10 10 10 11 11 11 11 12 12 12 12 13 13 14 14 14 15 15
20 20 19 19 18 18 17 16 15 14 13 12 10 9 7 7 8 9 10 10 10 10 10 10 10 10 10 10 10 10 10 9 9 9 10 10 10 11 11 11 12 12 12 12 12 13 13 14 14 15 15 16
22 21 20 19 19 18 18 17 16 15 14 13 11 10 8 7 8 9 9 10 10 10 10 10 10 10 10 10 10 10 10 10 9 9 9 10 10 11 11 12 12 12 13 13 13 13 13 14 15 15 16 16
23 21 20 20 20 19 18 18 17 16 15 14 12 11 9 8 8 8 9 9 9 10 9 10 10 10 10 10 10 10 10 10 10 9 9 10 10 11 11 12 13 13 13 13 13 13 13 14 15 15 16 16
23 22 21 21 21 21 19 18 18 17 17 15 13 12 10 9 8 8 9 9 9 9 9 9 9 9 10 10 10 10 10 10 10 10 10 10 10 11 12 13 13 14 14 14 14 14 14 15 15 15 15 16
24 23 23 23 23 22 20 19 19 19 18 16 14 13 12 10 9 9 9 8 8 9 9 9 9 9 9 10 10 10 10 10 10 10 10 10 11 11 12 13 14 14 15 15 15 15 15 15 15 15 15 15
25 25 24 24 24 23 21 20 20 20 19 17 16 15 13 11 10 10 9 8 8 8 9 9 9 9 9 9 10 10 10 10 11 11 11 11 11 12 13 13 14 14 15 15 15 15 15 15 15 15 15 15
27 26 25 25 25 24 22 21 21 20 19 18 17 16 14 12 11 10 10 9 8 8 8 9 9 9 9 9 10 10 10 11 11 11 11 11 12 12 13 14 14 15 15 16 16 16 16 15 15 16 15 15
28 27 26 25 25 24 22 22 21 21 20 19 19 17 16 14 13 11 10 9 8 8 8 9 10 10 10 10 10 10 11 11 12 12 12 12 12 13 14 14 15 16 16 16 16 16 16 16 16 16 16 16
28 28 27 25 25 24 23 23 23 22 22 21 20 19 17 15 14 13 11 10 9 8 8 9 10 10 10 10 10 10 11 12 12 12 12 13 13 14 14 15 16 16 17 17 16 16 16 16 16 16 16 16
28 28 27 26 25 24 24 24 24 24 23 22 21 20 18 17 15 14 12 11 10 9 9 9 10 10 10 10 10 11 11 12 12 12 13 13 14 14 15 15 16 17 17 17 17 17 16 17 17 17 16 16
29 29 29 27 26 26 26 26 26 26 25 23 23 21 20 18 17 15 14 12 11 10 9 9 10 11 11 11 11 11 12 12 12 12 13 13 14 14 15 16 16 17 17 17 17 16 17 17 17 17 17 17
30 31 31 30 28 28 29 29 28 27 25 24 24 23 21 20 18 17 16 14 12 11 11 10 11 11 11 11 12 12 12 13 13 13 13 13 14 15 15 16 16 17 17 17 17 16 17 17 17 17 18 18
32 34 34 32 30 30 30 30 29 28 26 25 25 24 23 22 21 19 18 16 14 13 12 12 12 12 12 12 13 13 13 14 14 14 14 14 14 15 15 16 16 17 17 17 17 16 17 17 17 18 18 18
34 35 36 34 31 30 30 29 29 27 25 25 25 25 25 24 23 22 20 18 16 15 14 14 13 14 14 14 14 14 14 15 15 15 15 14 15 15 15 16 17 17 17 17 17 16 16 17 17 18 19 19
35 36 36 35 32 30 29 28 27 26 25 26 26 28 28 26 25 24 22 20 18 17 16 15 15 15 15 15 15 16 16 16 16 17 17 16 15 16 16 16 17 17 17 17 17 16 17 17 18 18 19 19
36 36 36 35 33 31 30 29 28 28 29 30 30 30 29 27 27 27 25 23 20 19 18 17 17 16 17 17 17 17 17 17 17 18 18 17 16 16 17 17 17 17 17 17 17 17 17 18 18 18 19 19
Wind_Direction
253 255 250 247 248 247 248 252 267 293 309 318 324 328 332 335 338 338 337 338 337 336 335 334 336 336 335 334 335 335 335 335 333 328 324 318 314 316 316 316 314 311 308 304 304 305 308 311 313 316 318 318
253 250 244 244 243 241 241 244 265 285 299 313 322 327 332 335 338 337 337 338 335 335 336 335 337 337 335 335 335 334 334 333 329 326 321 319 319 318 316 314 310 307 303 302 304 307 311 314 317 319 318 320
248 245 242 242 239 237 235 242 263 277 296 311 321 326 330 334 336 338 338 338 337 337 339 338 338 338 337 336 335 334 333 332 329 326 323 322 321 317 315 311 307 304 302 304 308 313 316 317 319 320 321 323
245 241 239 239 237 234 232 243 259 274 295 309 321 324 327 333 337 340 340 339 340 341 342 341 339 339 339 338 336 334 332 331 327 324 324 322 318 315 312 308 306 304 305 310 315 318 319 320 321 321 323 324
241 237 236 236 234 231 231 245 258 275 294 309 319 320 326 333 338 341 341 342 343 344 344 342 341 340 340 338 335 333 330 329 325 324 323 319 316 313 310 308 308 308 312 317 320 321 321 322 322 323 325 324
237 234 235 233 231 229 233 246 258 274 293 308 313 316 325 332 337 342 343 346 347 346 345 342 341 340 340 337 334 331 329 326 323 322 319 316 314 312 312 312 312 314 319 322 323 323 322 322 323 324 322 318
234 233 233 231 229 227 236 247 257 272 289 303 307 315 326 332 340 343 344 347 348 347 344 342 341 341 340 337 335 331 327 323 319 317 315 315 316 316 316 315 317 321 324 325 323 322 321 322 322 320 316 314
232 232 232 229 227 227 237 248 256 270 284 296 304 315 325 335 341 342 345 347 347 346 344 341 340 340 340 338 337 334 327 321 316 314 315 317 318 318 319 321 326 328 327 325 322 321 320 320 317 316 314 315
231 231 231 227 226 228 238 248 256 266 279 293 302 313 325 335 339 340 344 347 347 346 342 340 339 340 340 339 338 334 327 320 315 314 317 320 322 324 327 330 332 330 326 323 322 320 318 316 316 316 315 315
231 231 230 226 225 230 238 247 255 264 276 288 297 309 324 332 335 339 344 347 347 345 342 339 339 341 341 339 338 334 327 319 315 317 322 326 329 332 334 335 332 329 326 323 320 317 316 316 316 316 315 316
231 231 228 226 226 230 239 246 254 263 272 282 289 301 319 329 334 339 344 346 346 345 344 342 341 344 342 339 337 332 325 319 318 322 327 330 334 336 336 334 331 328 325 320 318 315 316 316 316 316 317 318
231 231 227 226 226 231 239 246 252 260 269 275 280 294 312 326 332 338 343 344 344 346 346 345 345 346 343 339 335 330 324 321 324 328 332 333 334 335 333 331 328 325 321 318 317 316 316 317 317 318 318 317
233 231 227 225 227 232 240 246 252 257 264 269 273 286 306 322 330 335 340 342 344 347 348 348 347 346 342 337 332 327 325 326 330 334 336 335 333 333 330 328 324 322 319 318 317 317 317 318 319 318 315 313
234 231 227 226 228 233 240 245 250 254 260 263 267 279 297 314 326 332 336 340 344 347 349 349 348 346 341 336 331 329 330 333 336 338 337 334 332 329 327 325 323 320 318 318 317 317 319 319 318 315 312 310
235 232 228 227 228 233 239 244 249 253 256 259 262 271 287 306 320 328 333 338 344 347 349 349 348 345 340 336 333 333 335 338 339 339 336 333 330 328 325 323 321 320 317 316 317 319 319 318 315 312 310 310
237 233 229 228 229 233 238 243 248 251 254 255 258 265 278 296 312 323 329 336 342 346 348 349 347 344 340 337 336 336 338 339 338 336 333 331 328 325 322 320 319 318 316 316 317 319 318 316 314 311 310 309
237 234 229 228 229 233 238 243 248 251 252 253 254 260 269 285 303 316 324 333 339 345 347 347 346 343 341 339 338 338 338 336 334 332 329 328 325 322 320 319 319 318 316 316 317 317 317 315 312 311 309 307
239 236 231 229 230 233 237 242 247 250 251 251 252 256 263 276 293 306 318 328 336 342 345 345 344 343 341 340 339 338 336 333 330 328 326 325 323 321 321 320 319 318 316 316 316 316 314 313 311 310 308 307
239 237 233 231 230 232 236 241 246 249 250 250 250 253 258 268 282 295 309 321 331 337 342 343 342 342 342 341 340 337 334 331 328 326 325 324 323 323 323 321 320 318 317 316 315 313 312 312 311 309 307 307
239 238 235 232 232 232 235 240 245 248 250 250 249 251 255 261 273 285 298 312 324 332 338 340 340 341 342 342 340 337 333 329 326 326 325 325 324 324 322 321 319 317 316 315 313 312 312 312 311 308 307 309
239 239 237 235 234 234 235 239 243 247 249 250 249 249 252 257 265 276 288 301 314 325 334 337 337 339 341 342 339 336 332 328 326 326 325 325 324 323 321 319 316 315 314 313 312 312 313 313 310 308 308 311
239 240 239 238 237 236 236 239 243 246 249 250 249 249 249 253 259 268 278 289 303 317 328 333 333 336 339 340 339 335 331 328 327 327 326 324 322 320 318 316 314 313 313 312 312 313 313 312 310 309 311 312
239 241 242 241 240 240 239 241 244 247 249 249 249 248 248 250 255 262 270 280 293 306 319 327 328 331 335 336 336 334 331 329 328 327 325 323 320 318 316 315 313 313 312 312 312 313 312 312 311 312 312 312
241 243 244 244 243 243 242 242 244 246 248 249 249 248 247 247 250 256 264 272 283 296 309 317 321 325 329 332 333 332 330 328 327 326 323 320 318 316 314 313 313 312 311 311 312 313 313 312 313 314 312 311
244 244 245 246 245 244 243 244 245 247 248 248 249 247 246 246 247 251 257 265 276 287 298 307 313 317 323 326 327 327 326 324 323 321 319 317 315 313 312 311 310 310 310 310 311 312 313 313 313 313 312 310
245 244 243 243 242 241 241 242 244 245 246 247 249 247 245 244 244 248 253 260 268 278 288 297 303 309 315 319 321 320 320 319 318 316 314 313 312 310 308 308 307 308 308 308 309 310 312 312 313 313 311 308
245 243 242 241 240 240 240 242 244 245 246 247 248 248 245 243 243 245 250 256 263 272 280 288 295 301 306 311 313 314 313 313 312 310 309 308 308 306 305 304 304 305 306 306 308 309 311 311 310 310 308 306
247 244 242 241 240 240 242 243 245 246 247 248 249 249 246 243 242 244 248 253 260 268 275 281 288 294 299 303 306 308 309 308 307 305 304 303 303 303 301 301 301 302 303 304 307 308 309 309 309 308 306 304
248 245 244 243 242 243 245 247 249 250 251 251 251 250 247 243 242 244 247 252 258 265 272 277 283 289 294 297 300 302 304 304 303 301 300 299 299 300 299 297 297 299 302 303 304 306 306 306 306 305 304 303
249 247 245 244 244 244 247 250 252 254 253 250 248 247 246 244 244 245 247 251 257 263 270 275 280 285 289 293 295 297 299 300 301 299 298 297 297 297 296 295 294 296 299 301 302 302 302 303 303 303 303 303
252 250 248 245 244 244 244 245 246 246 245 244 245 246 247 246 244 245 247 251 256 262 269 274 278 283 287 290 292 294 296 297 297 297 297 295 295 295 294 293 292 293 296 299 299 299 300 301 302 303 303 304